Location: Newark
(27.9675°N, 86.8869°E)
Time: 02:06:41
(UTC+00:00)

SR - Pass Details

Date: 27 October 2019
Orbit: 573 x 882 km, 66.7° (Epoch: 21 November)

Event Time Altitude Azimuth Distance (km) Brightness Sun altitude
Rises 14:10:50 0° 215° (SW) 2,960 ? -35.5°
Reaches altitude 10° 14:13:05 10° 220° (SW) 2,097 ? -36.0°
Enters shadow 14:13:09 10° 220° (SW) 2,072 ? -36.0°
Maximum altitude 14:17:44 53° 297° (WNW) 878 - -37.0°
Drops below altitude 10° 14:22:53 10° 14° (NNE) 2,308 - -38.2°
Sets 14:25:28 0° 19° (NNE) 3,288 - -38.7°
